Location: Doverdale
(52.2833°N, 2.2000°W)
Time: 10:48:48
(UTC+00:00)

SJ 16-02 - Pass Details

Date: 29 October 2020
Orbit: 605 x 617 km, 75.0° (Epoch: 25 November)

Event Time Altitude Azimuth Distance (km) Brightness Sun altitude
Rises 18:28:40 0° 344° (NNW) 2,898 5.0 -16.4°
Reaches altitude 10° 18:31:46 10° 7° (N) 1,990 3.9 -16.8°
Enters shadow 18:33:44 15° 33° (NNE) 1,672 3.3 -17.1°
